Flag for Germany Weather past 2 weeks in Waiblingen, Baden-Württemberg, Germany

Now
57 °F

Sprinkles. Broken clouds.


Feels Like: 53 °F
Forecast: 43 / 73 °F
Wind: 18 mph from West

Location: Stuttgart-Echterdingen

Current Time: May 30, 2015 at 1:20:35 PM

Latest Report: May 30, 2015 at 12:50 PM


Visibility: N/A

Pressure: 30.01 "Hg

Humidity: 77%

Dew point: 50 °F

Location of WaiblingenLocation

Historic Weather in Waiblingen — Graph

°F

Waiblingen temperature yesterday

Maximum temperature yesterday: 72 °F (at 2:50 PM)
Minimum temperature yesterday: 52 °F (at 6:20 AM)
Average temperature yesterday: 61 °F

Past Weeks' High & Low Weather Summary

 TemperatureHumidityPressure
High73 °F (May 18, 5:20 PM)100% (May 16, 12:20 AM)30.30 "Hg (May 16, 12:20 AM)
Low37 °F (May 22, 5:50 AM)25% (May 18, 6:20 PM)29.74 "Hg (May 18, 6:20 PM)
Average56 °F70%30.06 "Hg
* Reported May 15 12:20 PM — May 30 12:20 PM, Waiblingen, Weather by CustomWeather, © 2015

Note: Actual official high and low records may vary slightly from our data, if they occured in-between our weather recording intervals... More about our weather records

Advertising

Waiblingen weather history for previous 24 hours

 ConditionsComfort  
Time TempWeatherWind HumidityBarometerVisibility
12:20 PM
Sat, May 30
55 °FPartly sunny.14 mph82%30.01 "HgN/A
11:50 AM55 °FBroken clouds.12 mph82%30.01 "HgN/A
11:20 AM55 °FBroken clouds.12 mph88%30.01 "HgN/A
10:50 AM54 °FSprinkles. Broken clouds.12 mph88%29.98 "HgN/A
10:20 AM54 °FSprinkles. Broken clouds.12 mph88%29.98 "HgN/A
9:50 AM54 °FBroken clouds.14 mph88%29.98 "HgN/A
9:20 AM55 °FLight rain. Partly sunny.3 mph88%29.98 "HgN/A
8:50 AM55 °FLight rain. Partly sunny.3 mph88%29.95 "HgN/A
8:20 AM54 °FLight rain. Partly sunny.7 mph94%29.95 "HgN/A
7:50 AM54 °FLight rain. Partly sunny.9 mph94%29.95 "HgN/A
7:20 AM55 °FLight rain. Partly sunny.8 mph82%29.95 "Hg6 mi
6:50 AM55 °FLight rain. Broken clouds.5 mph82%29.92 "HgN/A
6:20 AM55 °FLight rain. Passing clouds.3 mph88%29.92 "HgN/A
5:50 AM55 °FLight rain. Passing clouds.3 mph88%29.92 "HgN/A
5:20 AM57 °FPassing clouds.5 mph77%29.92 "HgN/A
4:50 AM57 °FPassing clouds.5 mph77%29.89 "HgN/A
4:20 AM57 °FPassing clouds.5 mph77%29.92 "HgN/A
3:50 AM55 °FPassing clouds.5 mph82%29.92 "HgN/A
3:20 AM55 °FClear.1 mph82%29.92 "Hg10 mi
2:50 AM55 °FClear.2 mph88%29.92 "Hg10 mi
2:20 AM55 °FClear.No wind88%29.92 "Hg10 mi
1:50 AM55 °FClear.No wind88%29.92 "Hg10 mi
1:20 AM55 °FClear.2 mph88%29.92 "Hg10 mi
12:50 AM55 °FPassing clouds.2 mph88%29.92 "HgN/A
12:20 AM55 °FPassing clouds.3 mph88%29.92 "HgN/A
11:50 PM
Fri, May 29
57 °FPassing clouds.2 mph88%29.92 "HgN/A
11:20 PM57 °FPartly cloudy.3 mph88%29.92 "HgN/A
10:20 PM59 °FScattered showers. Passing clouds.3 mph82%29.89 "HgN/A
9:50 PM59 °FSprinkles. Broken clouds.3 mph82%29.89 "HgN/A
9:20 PM59 °FScattered showers. Partly sunny.6 mph82%29.89 "HgN/A
8:50 PM61 °FSprinkles. Broken clouds.9 mph77%29.86 "HgN/A
8:20 PM63 °FPartly sunny.3 mph73%29.86 "HgN/A
7:50 PM63 °FScattered showers. Scattered clouds.8 mph73%29.86 "HgN/A
7:20 PM64 °FScattered clouds.6 mph68%29.86 "HgN/A
6:50 PM64 °FScattered clouds.8 mph68%29.83 "HgN/A
6:20 PM64 °FScattered clouds.13 mph73%29.83 "HgN/A
5:50 PM64 °FScattered clouds.13 mph73%29.83 "HgN/A
5:20 PM66 °FSprinkles. Scattered clouds.13 mph64%29.83 "HgN/A
4:50 PM68 °FScattered clouds.8 mph60%29.80 "HgN/A
4:20 PM68 °FScattered clouds.12 mph64%29.83 "HgN/A
3:50 PM68 °FScattered showers. Scattered clouds.12 mph49%29.83 "HgN/A
3:20 PM70 °FSprinkles. Scattered clouds.12 mph50%29.83 "HgN/A
2:50 PM72 °FScattered clouds.14 mph47%29.86 "HgN/A
2:20 PM70 °FBroken clouds.9 mph53%29.86 "HgN/A
1:50 PM68 °FBroken clouds.6 mph64%29.89 "HgN/A
1:20 PM64 °FBroken clouds.5 mph64%29.89 "HgN/A
Weather by CustomWeather, © 2015

See weather overviewHow to use our weather pages